Showing default

COSMOS 2489, 39484

Orbit data source: Space-Track

COSMOS 2489, 39484 is a payload satellite owned by VVKO (CIS) in LEO that was launched on Wed, 25 Dec 2013 UTC via an ROKOT launch vehicle from the Plesetsk Missile And Space Complex (PKMTR). Payload-class satellites include a variety of spacecraft equipped with specific instruments for various scientific and technological missions. These include communications satellites like Starlink; space stations such as the ISS; scientific satellites like the Hubble; Earth observation satellites from companies like Planet Labs, Umbra, and HawkEye 360; GPS; miniature CubeSats for education and research; and military/defense satellites.

Loading next visibility...
Identifier
39484, 2013-076B
Orbit
LEO
Country
Flag of CISCIS
Related business
Manufacturer
Resehetnev ISS
Mission
Operational Civil Communications
Bus & Motor
STRELA-3M, Unknown motor
Mass
280 kg wet, 280 kg dry
Launch date (UTC)
2013-12-25 (13 years ago)
Launch vehicle
ROKOT
Launch site
Plesetsk Missile And Space Complex (PKMTR)
Object type
Payload
Rocket body
Debris
Shape & HBR
Cyl + 1 Ant, 3.5 m
Radar Cross Section
1.583 m², Large (>1 m²)

Expand to show TLE details & history
Last TLE update: 8 hours ago

TLE from 8 hours ago
0 COSMOS 2489
1 39484U 13076B   26255.91614632  .00000015  00000-0  35966-4 0  9996
2 39484  82.4856 115.4484 0020342 265.9895  93.8860 12.42882064576846
Epoch: 2026-09-12T21:59Z
TLE epoch observation values (Epoch: 2026-09-12T21:59:15.042Z)
Latitude
0.00007°
Longitude
153.71745°
Altitude
1,498.227 km
Speed
7.115 km/s
True Right ascension
07h 41m 47s
True Declination
0° 00' 00"
Sunlit
Object was in daylight at epoch
Visualization orbit readout
Latitude
Unknown
Longitude
Unknown
Altitude
Unknown
Speed
Unknown
Apparent Right ascension
Unknown
Apparent Declination
Unknown
Sunlit
N/A
Visualization observer readout
Local Sidereal Time
22:28:10
Azimuth
Unknown
Elevation
Unknown
Doppler factor
Unknown
Orbital elements
Apogee altitude
1,507.77 km
Perigee altitude
1,475.752 km
Semi-major axis
7,869.898 km
Eccentricity
0.00203
Inclination
82.4856°
RAAN
115.4484°
Arg. of periapsis
265.9895°
True anomaly
94.11853°
Mean anomaly
93.886°
Eccentric anomaly
94.00227°
Mean motion
3.10878 °/min
Orbital period
115.8 mins
BSTAR
0.000035966
Loading maneuver chart data...
Computing Atmospheric mass density...
Loading historical data...
Loading historical data...
Loading historical data...
Loading historical data...
Loading historical data...
Loading historical data...
Loading historical data...

Documentation

Showing up to 5 results
|